User: anonymous   Login
Location: Clatteringshaws Loch
(55.0508°N, 4.2860°W)
Time: 21:22:12
(UTC+00:00)
Language:

Sapphire - Orbit

View from above orbital plane
View from above orbital plane
View from above satellite
View from above satellite

Ground track
Ground track

The orbit data is extracted from the following two-line orbital elements,

1 26932U 01043D   18055.79712001 -.00000043 +00000-0 +15273-4 0  9996
2 26932 067.0566 162.1069 0004132 281.5589 078.5048 14.30273086856428
Epoch (UTC): 24 February 2018 19:07:51
Eccentricity: 0.0004132
inclination: 67.0566°
perigee height: 788 km
apogee height: 794 km
right ascension of ascending node: 162.1069°
argument of perigee: 281.5589°
revolutions per day: 14.30273086
mean anomaly at epoch: 78.5048°
orbit number at epoch: 85642

The dashed part of the orbit path shows where the satellite is in the earth's shadow,  

DLR